Вернуться в каталог

CZ-3B DEB

LostHEO
NORAD 40159·DEBRIS·🇨🇳 China

Запущен Sep 4, 2010 с Xichang Satellite Launch Center

Loading…

Ближайшие Пролёты (ближайшие 24 часа)

TLE

УстаревшееSource: Space-Track

Эпоха: Feb 18, 2026, 23:24 UTC

1 40159U 10042L   26049.97521708  .00007611  00000-0  73008-2 0  9991
2 40159  26.9874  41.4139 6970695 231.3711  43.1888  2.62871057101270

Отслеживайте CZ-3B DEB в реальном времени с AllMySat

Download on the App Store